Temp
-12 -13 -13 -13 -13 -13 -13 -13 -13 -13 -13 -13 -13 -13 -13 -13 -13 -13 -13 -13 -13 -12 -10 -10 -10 -10 -9 -8 -8 -8 -8 -8 -8 -8 -7 -7 -7 -7 -6 -6 -6 -5 -5 -5 -6 -6 -6 -4 -4 -4 -4 -4 -4 -4
-12 -12 -13 -13 -13 -13 -13 -13 -13 -13 -13 -13 -13 -13 -14 -14 -14 -14 -13 -13 -13 -13 -11 -10 -10 -9 -9 -9 -8 -8 -8 -8 -7 -7 -7 -7 -7 -7 -6 -6 -7 -7 -6 -5 -5 -4 -4 -4 -4 -4 -4 -4 -4 -4
-12 -12 -13 -13 -13 -13 -13 -13 -14 -14 -14 -14 -14 -14 -14 -14 -14 -14 -13 -13 -13 -13 -12 -10 -8 -8 -9 -8 -9 -9 -8 -8 -8 -8 -8 -8 -8 -8 -7 -7 -7 -6 -5 -5 -5 -5 -5 -5 -5 -5 -5 -5 -5 -5
-12 -12 -13 -13 -13 -13 -14 -14 -14 -14 -14 -14 -14 -14 -14 -14 -14 -14 -14 -13 -13 -13 -13 -9 -9 -8 -8 -8 -8 -8 -8 -8 -8 -8 -8 -8 -8 -7 -7 -7 -7 -6 -6 -6 -5 -5 -5 -5 -5 -5 -5 -5 -5 -6
-12 -12 -13 -13 -13 -14 -14 -14 -14 -14 -15 -14 -14 -14 -14 -14 -14 -14 -14 -13 -13 -13 -12 -10 -8 -8 -8 -7 -8 -8 -7 -8 -8 -8 -8 -8 -8 -8 -8 -7 -7 -7 -7 -6 -6 -6 -5 -5 -5 -5 -5 -6 -6 -6
-12 -12 -13 -13 -13 -13 -14 -14 -14 -15 -15 -14 -14 -14 -14 -14 -14 -14 -14 -13 -13 -13 -12 -11 -9 -8 -8 -8 -8 -8 -9 -9 -9 -9 -8 -8 -8 -8 -8 -8 -7 -7 -7 -7 -7 -6 -7 -6 -7 -6 -6 -7 -6 -7
-12 -13 -13 -13 -14 -14 -14 -14 -14 -15 -14 -14 -14 -14 -14 -14 -14 -14 -13 -13 -13 -13 -13 -12 -10 -9 -8 -8 -8 -9 -9 -9 -9 -9 -9 -9 -8 -8 -8 -8 -8 -7 -7 -7 -7 -7 -6 -7 -7 -7 -7 -7 -7 -7
-13 -13 -13 -14 -14 -14 -14 -14 -14 -14 -15 -15 -15 -14 -14 -14 -14 -13 -13 -13 -12 -12 -13 -11 -9 -9 -9 -9 -9 -9 -9 -9 -9 -9 -9 -9 -8 -9 -8 -7 -6 -6 -6 -7 -7 -7 -7 -7 -7 -7 -6 -7 -7 -7
-13 -14 -14 -14 -14 -14 -14 -14 -14 -15 -15 -15 -15 -15 -15 -15 -13 -12 -13 -12 -11 -11 -11 -10 -9 -9 -9 -9 -9 -10 -9 -10 -9 -9 -8 -8 -8 -8 -6 -7 -7 -7 -7 -7 -7 -7 -7 -7 -6 -6 -6 -7 -7 -6
-12 -13 -13 -13 -13 -14 -14 -14 -14 -14 -15 -15 -15 -15 -14 -13 -13 -13 -13 -12 -11 -10 -10 -10 -10 -9 -9 -9 -10 -9 -9 -9 -9 -8 -8 -8 -7 -6 -7 -7 -7 -7 -7 -7 -6 -6 -6 -7 -6 -6 -7 -7 -7 -8
-12 -13 -13 -12 -11 -11 -12 -13 -14 -14 -15 -15 -14 -13 -13 -12 -13 -13 -10 -10 -10 -10 -10 -10 -10 -8 -9 -8 -8 -9 -9 -9 -9 -9 -9 -8 -7 -6 -7 -7 -8 -7 -7 -8 -8 -7 -7 -7 -7 -7 -7 -7 -8 -8
-12 -12 -11 -10 -10 -10 -11 -11 -13 -14 -14 -13 -13 -12 -12 -12 -11 -11 -11 -11 -11 -11 -10 -10 -8 -8 -8 -9 -9 -9 -9 -9 -9 -9 -10 -9 -7 -7 -7 -7 -8 -7 -8 -7 -7 -7 -7 -7 -7 -7 -7 -7 -8 -8
-11 -11 -12 -11 -10 -10 -11 -11 -12 -12 -12 -12 -12 -11 -11 -12 -12 -11 -10 -10 -9 -9 -9 -9 -9 -9 -9 -9 -9 -9 -9 -9 -10 -10 -9 -8 -8 -7 -7 -8 -8 -8 -8 -8 -8 -7 -7 -7 -6 -6 -6 -7 -7 -8
-11 -11 -12 -11 -11 -12 -12 -12 -12 -12 -11 -11 -11 -11 -10 -10 -10 -10 -9 -8 -9 -8 -8 -9 -8 -9 -9 -9 -9 -10 -10 -10 -10 -10 -8 -8 -8 -9 -9 -9 -8 -8 -8 -8 -8 -8 -7 -6 -6 -6 -6 -6 -7 -8
-11 -11 -11 -11 -11 -11 -11 -11 -11 -11 -10 -9 -9 -9 -11 -11 -9 -9 -9 -8 -8 -9 -9 -9 -9 -9 -9 -10 -10 -10 -11 -10 -10 -9 -9 -9 -9 -9 -9 -9 -9 -9 -9 -9 -8 -8 -7 -7 -7 -6 -7 -7 -8 -8
-11 -11 -11 -10 -10 -11 -11 -11 -11 -9 -8 -9 -9 -9 -10 -10 -10 -9 -9 -9 -9 -9 -9 -10 -10 -10 -10 -10 -11 -10 -10 -9 -9 -9 -9 -9 -9 -9 -9 -9 -9 -9 -9 -9 -9 -8 -8 -8 -8 -8 -8 -9 -8 -8
-10 -10 -10 -10 -10 -10 -10 -10 -9 -9 -9 -10 -11 -10 -10 -10 -10 -10 -10 -10 -10 -10 -10 -11 -11 -11 -11 -11 -10 -10 -9 -8 -9 -10 -10 -9 -9 -10 -9 -9 -9 -10 -9 -9 -9 -9 -9 -9 -9 -9 -9 -9 -9 -9
-11 -10 -10 -10 -10 -10 -10 -10 -10 -11 -11 -11 -11 -11 -11 -11 -10 -10 -11 -11 -11 -11 -12 -12 -12 -11 -11 -11 -9 -8 -10 -9 -10 -10 -10 -10 -10 -10 -10 -10 -10 -10 -9 -9 -9 -9 -9 -9 -9 -10 -10 -10 -10 -10
-11 -11 -11 -11 -11 -11 -10 -11 -11 -12 -12 -12 -12 -12 -12 -12 -11 -11 -11 -11 -11 -11 -11 -11 -12 -11 -11 -10 -10 -10 -10 -10 -10 -10 -10 -10 -10 -10 -10 -10 -10 -9 -9 -9 -9 -9 -9 -10 -10 -10 -10 -10 -10 -10
-11 -11 -11 -11 -11 -10 -11 -11 -11 -11 -11 -11 -11 -12 -12 -12 -11 -11 -11 -11 -11 -12 -12 -12 -10 -10 -10 -10 -10 -10 -10 -10 -10 -11 -10 -10 -10 -10 -10 -9 -9 -9 -9 -9 -9 -10 -10 -10 -10 -10 -10 -10 -10 -11
-11 -11 -11 -11 -11 -11 -11 -11 -11 -11 -11 -11 -11 -11 -11 -11 -11 -11 -11 -11 -11 -11 -11 -9 -9 -9 -10 -10 -10 -10 -10 -10 -10 -10 -10 -10 -10 -10 -9 -9 -9 -9 -9 -10 -10 -10 -10 -10 -11 -11 -11 -11 -11 -11
-10 -10 -10 -10 -10 -11 -11 -11 -11 -11 -11 -11 -11 -11 -11 -11 -11 -11 -11 -11 -10 -10 -10 -10 -10 -10 -10 -10 -10 -10 -10 -10 -10 -10 -10 -10 -10 -10 -9 -9 -9 -10 -11 -11 -11 -11 -11 -11 -11 -11 -11 -11 -11 -11
-10 -11 -11 -11 -11 -11 -11 -11 -11 -11 -11 -11 -11 -11 -11 -11 -11 -11 -11 -10 -10 -11 -11 -10 -10 -10 -10 -10 -10 -10 -10 -10 -10 -10 -10 -10 -10 -10 -9 -10 -10 -10 -11 -11 -11 -11 -12 -12 -12 -12 -12 -12 -12 -12
-11 -11 -11 -11 -12 -12 -11 -11 -12 -12 -12 -12 -12 -12 -12 -11 -12 -12 -11 -10 -10 -11 -11 -10 -10 -10 -10 -10 -10 -10 -10 -11 -11 -11 -10 -10 -10 -10 -9 -10 -10 -10 -11 -11 -11 -11 -12 -12 -12 -12 -12 -12 -12 -12
-12 -12 -12 -12 -12 -12 -12 -12 -12 -12 -13 -13 -13 -13 -12 -12 -12 -12 -11 -10 -10 -10 -10 -10 -10 -10 -10 -10 -10 -10 -11 -10 -10 -10 -10 -10 -10 -10 -10 -10 -10 -11 -11 -11 -11 -11 -12 -12 -12 -12 -12 -13 -13 -13
-12 -12 -12 -12 -12 -12 -12 -13 -13 -13 -13 -13 -13 -13 -13 -13 -13 -12 -11 -11 -11 -11 -11 -11 -11 -11 -10 -10 -10 -10 -10 -10 -10 -10 -10 -11 -11 -10 -10 -10 -11 -11 -11 -11 -11 -11 -12 -12 -12 -12 -13 -13 -13 -13
-12 -12 -12 -12 -12 -13 -13 -13 -13 -13 -13 -13 -13 -13 -13 -13 -12 -12 -11 -11 -11 -12 -12 -11 -11 -11 -11 -10 -10 -10 -10 -10 -10 -11 -11 -11 -11 -11 -11 -11 -11 -11 -11 -11 -11 -12 -12 -12 -12 -12 -13 -13 -13 -13
-13 -12 -13 -13 -13 -13 -14 -14 -14 -14 -13 -13 -14 -14 -13 -13 -12 -11 -11 -11 -11 -11 -11 -11 -11 -11 -11 -11 -11 -10 -10 -11 -11 -11 -11 -12 -12 -12 -12 -12 -12 -12 -12 -12 -12 -12 -12 -12 -13 -13 -13 -13 -13 -13
-13 -13 -13 -13 -14 -14 -14 -14 -14 -14 -14 -14 -14 -14 -13 -12 -12 -12 -12 -12 -11 -11 -11 -11 -11 -11 -11 -11 -11 -11 -11 -12 -12 -12 -12 -12 -12 -12 -12 -12 -12 -12 -12 -12 -12 -12 -12 -13 -13 -13 -13 -13 -13 -14
-13 -14 -14 -14 -13 -13 -14 -14 -14 -14 -13 -14 -13 -12 -11 -11 -11 -11 -11 -11 -11 -10 -11 -10 -11 -11 -11 -11 -12 -12 -12 -12 -13 -13 -13 -13 -13 -13 -13 -13 -13 -13 -13 -13 -13 -13 -13 -13 -13 -14 -14 -14 -14 -14
-14 -14 -14 -14 -13 -13 -13 -13 -13 -13 -13 -13 -13 -13 -12 -11 -10 -11 -11 -10 -10 -10 -10 -10 -11 -11 -11 -11 -12 -12 -12 -13 -13 -13 -13 -13 -13 -13 -13 -13 -13 -13 -13 -13 -14 -14 -14 -14 -14 -14 -14 -14 -15 -15
-14 -15 -15 -15 -14 -14 -14 -14 -13 -13 -13 -12 -12 -12 -12 -12 -11 -12 -12 -11 -11 -11 -10 -10 -11 -11 -11 -11 -12 -12 -12 -12 -12 -13 -13 -13 -13 -13 -13 -13 -13 -14 -14 -14 -14 -14 -15 -15 -15 -15 -15 -15 -15 -16
-14 -14 -15 -15 -16 -16 -16 -15 -14 -13 -12 -12 -12 -12 -12 -12 -12 -12 -13 -12 -12 -11 -11 -11 -11 -11 -12 -12 -12 -12 -12 -12 -12 -12 -13 -13 -13 -13 -13 -14 -14 -14 -14 -14 -15 -15 -15 -15 -15 -15 -16 -16 -16 -17
Height
2847 2853 2861 2867 2874 2881 2888 2894 2900 2905 2910 2915 2919 2923 2926 2930 2935 2938 2941 2947 2950 2950 2951 2957 2961 2965 2968 2971 2971 2975 2978 2976 2977 2976 2978 2977 2977 2978 2978 2977 2978 2976 2979 2982 2987 2989 2986 2986 2990 2992 2991 2990 2991 2993
2832 2840 2849 2857 2863 2870 2877 2884 2890 2896 2902 2907 2912 2916 2919 2923 2928 2931 2934 2940 2944 2944 2942 2947 2952 2957 2960 2966 2968 2968 2971 2972 2974 2971 2971 2972 2971 2972 2973 2974 2973 2975 2974 2977 2980 2978 2981 2982 2985 2985 2984 2985 2985 2989
2820 2830 2839 2848 2855 2862 2869 2875 2882 2888 2894 2900 2904 2909 2913 2917 2921 2924 2928 2934 2938 2939 2936 2938 2940 2950 2954 2957 2960 2962 2963 2967 2969 2969 2969 2969 2969 2970 2970 2970 2971 2973 2975 2975 2977 2975 2977 2979 2981 2981 2982 2982 2984 2986
2812 2823 2832 2841 2848 2855 2862 2869 2875 2881 2887 2893 2897 2902 2907 2911 2915 2919 2921 2927 2932 2935 2931 2929 2936 2939 2944 2948 2951 2955 2959 2963 2965 2966 2965 2966 2967 2967 2968 2968 2969 2970 2970 2969 2969 2971 2973 2975 2975 2976 2977 2979 2980 2982
2809 2819 2827 2835 2842 2849 2855 2862 2868 2874 2881 2887 2892 2897 2901 2906 2910 2913 2917 2921 2926 2931 2929 2929 2931 2931 2933 2938 2943 2945 2951 2955 2961 2961 2961 2963 2963 2965 2964 2964 2962 2964 2965 2966 2966 2967 2968 2969 2969 2971 2971 2973 2974 2975
2809 2817 2823 2830 2836 2843 2849 2856 2863 2869 2876 2883 2889 2893 2897 2901 2905 2909 2912 2916 2921 2925 2927 2925 2924 2924 2927 2927 2935 2943 2949 2954 2956 2957 2958 2958 2960 2962 2959 2955 2956 2959 2960 2960 2960 2963 2963 2963 2963 2965 2966 2967 2969 2969
2811 2817 2822 2827 2832 2839 2846 2852 2858 2865 2873 2879 2885 2889 2893 2897 2900 2903 2908 2914 2920 2924 2925 2926 2921 2920 2925 2928 2935 2942 2946 2949 2951 2952 2953 2954 2955 2955 2951 2947 2951 2953 2953 2954 2953 2953 2952 2955 2957 2958 2957 2960 2961 2961
2814 2816 2819 2823 2828 2834 2840 2848 2855 2863 2870 2876 2881 2886 2890 2893 2896 2898 2907 2912 2916 2918 2923 2924 2914 2918 2925 2929 2935 2939 2942 2944 2946 2947 2947 2949 2949 2948 2941 2940 2946 2947 2946 2945 2945 2946 2945 2947 2948 2950 2951 2952 2952 2954
2814 2813 2815 2817 2822 2827 2835 2843 2852 2860 2867 2873 2879 2884 2887 2888 2890 2896 2903 2907 2910 2917 2918 2914 2914 2917 2923 2929 2933 2936 2938 2940 2941 2941 2943 2944 2941 2938 2938 2938 2938 2938 2936 2936 2936 2937 2938 2939 2941 2941 2942 2943 2943 2945
2817 2813 2809 2809 2808 2815 2826 2838 2848 2858 2865 2873 2878 2881 2882 2883 2893 2896 2900 2904 2907 2909 2911 2913 2914 2916 2919 2925 2929 2934 2935 2936 2936 2937 2938 2936 2933 2934 2932 2931 2931 2930 2929 2929 2928 2930 2930 2930 2932 2933 2932 2934 2934 2936
2823 2820 2815 2806 2800 2805 2816 2831 2845 2856 2864 2870 2875 2879 2884 2887 2893 2896 2894 2896 2898 2904 2910 2911 2912 2914 2919 2924 2926 2931 2932 2933 2933 2934 2935 2931 2926 2930 2929 2928 2926 2925 2924 2924 2924 2924 2925 2924 2925 2924 2924 2924 2926 2929
2830 2829 2825 2820 2818 2819 2825 2834 2845 2855 2863 2873 2878 2882 2883 2888 2889 2891 2891 2894 2898 2902 2904 2908 2912 2915 2918 2922 2927 2930 2931 2932 2931 2931 2931 2925 2925 2926 2925 2924 2923 2921 2920 2920 2919 2921 2920 2919 2919 2918 2918 2918 2919 2922
2841 2840 2839 2838 2839 2840 2846 2852 2859 2867 2872 2878 2882 2882 2884 2885 2886 2889 2889 2892 2895 2898 2902 2906 2910 2915 2918 2922 2925 2927 2927 2928 2927 2927 2924 2921 2922 2922 2920 2920 2919 2918 2917 2915 2917 2916 2916 2915 2914 2912 2912 2913 2913 2914
2854 2853 2852 2853 2854 2856 2858 2862 2867 2873 2876 2880 2883 2884 2886 2887 2887 2889 2889 2893 2895 2899 2903 2906 2910 2913 2916 2919 2921 2923 2924 2924 2923 2921 2916 2918 2918 2917 2916 2915 2915 2915 2914 2913 2913 2911 2910 2909 2908 2906 2905 2905 2906 2908
2864 2864 2864 2863 2866 2868 2871 2873 2876 2879 2883 2882 2883 2884 2885 2885 2887 2889 2892 2894 2895 2899 2902 2905 2908 2911 2914 2917 2918 2919 2920 2918 2915 2911 2913 2914 2913 2911 2910 2910 2910 2909 2909 2907 2906 2906 2905 2903 2901 2900 2898 2898 2900 2901
2874 2875 2876 2876 2876 2878 2880 2883 2886 2887 2885 2884 2884 2886 2887 2889 2891 2892 2893 2895 2898 2900 2902 2905 2906 2909 2910 2912 2912 2912 2913 2908 2907 2908 2909 2909 2908 2907 2906 2905 2905 2904 2903 2902 2900 2900 2898 2896 2895 2893 2893 2893 2895 2896
2880 2880 2881 2881 2883 2884 2886 2887 2887 2886 2886 2887 2888 2889 2890 2890 2891 2892 2893 2894 2896 2898 2899 2901 2902 2904 2904 2905 2905 2903 2900 2902 2904 2905 2905 2905 2904 2903 2901 2900 2899 2897 2896 2895 2894 2893 2891 2890 2889 2889 2889 2890 2891 2892
2882 2882 2884 2885 2885 2886 2886 2886 2885 2887 2888 2889 2889 2890 2889 2890 2891 2892 2892 2893 2895 2895 2896 2898 2898 2897 2897 2896 2895 2897 2899 2901 2900 2901 2900 2899 2898 2895 2894 2893 2892 2891 2889 2888 2886 2886 2885 2885 2885 2885 2885 2886 2887 2888
2884 2885 2885 2886 2886 2887 2886 2887 2888 2889 2890 2889 2888 2886 2885 2885 2885 2886 2887 2889 2890 2891 2892 2892 2892 2889 2891 2892 2895 2896 2897 2897 2897 2896 2895 2894 2892 2889 2886 2885 2884 2883 2880 2879 2879 2880 2881 2881 2881 2881 2881 2882 2884 2885
2887 2887 2888 2888 2888 2888 2888 2889 2889 2888 2889 2888 2886 2885 2883 2882 2881 2881 2881 2883 2884 2885 2884 2882 2881 2885 2887 2890 2892 2893 2894 2893 2892 2890 2890 2889 2885 2882 2880 2879 2878 2875 2874 2874 2875 2876 2877 2877 2878 2879 2880 2881 2882 2883
2891 2891 2891 2891 2891 2890 2890 2890 2890 2889 2888 2887 2885 2882 2881 2879 2878 2878 2878 2878 2878 2876 2874 2875 2878 2881 2884 2885 2887 2888 2888 2887 2886 2885 2884 2882 2880 2877 2876 2874 2872 2870 2871 2871 2872 2873 2873 2874 2876 2877 2878 2879 2880 2881
2892 2892 2891 2891 2891 2890 2890 2890 2890 2888 2887 2885 2883 2881 2879 2878 2876 2875 2875 2874 2873 2874 2873 2874 2874 2876 2877 2879 2881 2881 2881 2880 2880 2879 2877 2876 2874 2873 2872 2870 2868 2867 2868 2869 2870 2871 2871 2872 2873 2874 2875 2876 2877 2878
2891 2891 2890 2890 2890 2889 2890 2888 2887 2886 2884 2883 2881 2879 2878 2876 2875 2874 2872 2870 2870 2869 2868 2868 2868 2868 2868 2870 2871 2872 2873 2873 2873 2872 2871 2870 2869 2868 2868 2867 2866 2866 2867 2868 2868 2869 2869 2870 2870 2871 2872 2872 2873 2874
2890 2890 2889 2888 2888 2888 2887 2886 2886 2884 2883 2882 2880 2878 2875 2873 2872 2870 2868 2867 2866 2865 2864 2864 2863 2863 2863 2864 2865 2866 2867 2867 2866 2865 2865 2865 2865 2864 2864 2863 2863 2864 2864 2865 2866 2866 2867 2867 2867 2868 2868 2868 2869 2870
2891 2889 2889 2887 2887 2887 2886 2885 2884 2883 2881 2879 2876 2873 2871 2871 2868 2866 2863 2863 2863 2862 2861 2861 2860 2859 2859 2859 2859 2859 2860 2860 2860 2860 2860 2860 2860 2860 2860 2860 2860 2860 2861 2861 2862 2863 2863 2864 2864 2864 2864 2865 2865 2866
2888 2887 2887 2885 2885 2885 2884 2883 2882 2880 2879 2876 2873 2870 2868 2867 2864 2862 2860 2860 2860 2858 2857 2857 2857 2856 2855 2854 2854 2854 2854 2854 2854 2854 2854 2855 2855 2855 2856 2856 2856 2856 2856 2856 2857 2858 2858 2858 2859 2859 2859 2860 2860 2860
2885 2884 2883 2883 2883 2882 2880 2879 2878 2876 2873 2870 2868 2867 2866 2864 2861 2859 2858 2857 2855 2855 2855 2854 2853 2852 2851 2851 2850 2849 2849 2849 2849 2849 2849 2849 2850 2850 2850 2851 2850 2851 2851 2851 2851 2852 2852 2852 2853 2853 2854 2854 2854 2854
2882 2880 2880 2880 2879 2877 2875 2873 2871 2869 2867 2866 2865 2864 2862 2860 2858 2857 2855 2852 2850 2849 2849 2848 2847 2847 2846 2846 2845 2844 2844 2844 2844 2845 2845 2845 2845 2845 2845 2845 2845 2845 2845 2845 2845 2845 2846 2846 2846 2847 2848 2848 2849 2849
2880 2879 2877 2875 2874 2871 2869 2867 2865 2864 2863 2861 2858 2856 2854 2853 2851 2850 2848 2846 2845 2843 2843 2841 2841 2840 2840 2841 2840 2840 2839 2839 2840 2840 2840 2840 2840 2841 2840 2840 2839 2839 2839 2839 2839 2839 2840 2840 2841 2841 2842 2843 2844 2845
2877 2875 2873 2870 2869 2866 2865 2862 2859 2857 2855 2854 2851 2847 2845 2844 2843 2841 2839 2839 2837 2836 2835 2835 2834 2834 2834 2834 2835 2835 2835 2835 2835 2836 2836 2836 2836 2836 2835 2835 2835 2834 2834 2834 2835 2835 2835 2836 2836 2837 2838 2839 2840 2841
2873 2870 2868 2865 2863 2862 2859 2856 2853 2850 2849 2846 2845 2841 2838 2835 2836 2834 2832 2831 2830 2830 2829 2829 2829 2829 2829 2829 2829 2829 2830 2830 2830 2831 2831 2831 2831 2831 2831 2830 2830 2830 2830 2830 2831 2831 2832 2832 2833 2834 2835 2835 2836 2836
2870 2867 2864 2861 2859 2857 2854 2850 2846 2844 2842 2840 2838 2836 2834 2832 2831 2829 2827 2826 2825 2825 2824 2824 2824 2824 2825 2825 2825 2825 2825 2826 2826 2827 2827 2827 2827 2827 2827 2827 2827 2827 2827 2827 2827 2828 2828 2829 2830 2830 2830 2831 2831 2831
2865 2864 2861 2857 2854 2852 2849 2846 2842 2838 2836 2833 2831 2830 2831 2831 2829 2828 2826 2824 2823 2821 2820 2820 2821 2821 2821 2822 2822 2822 2822 2823 2823 2824 2824 2824 2824 2824 2824 2823 2823 2823 2823 2823 2824 2824 2824 2825 2825 2825 2826 2826 2826 2826
Wind_Speed
43 44 43 41 43 44 42 39 36 34 33 32 31 31 30 29 28 35 37 36 39 44 49 49 42 41 35 37 32 30 18 20 22 29 26 21 19 19 17 18 13 21 21 19 19 13 14 13 15 23 22 23 24 23
37 43 41 37 36 36 38 37 35 33 32 30 30 29 28 27 28 31 37 35 36 37 44 46 50 43 34 28 23 25 30 22 16 14 16 15 12 15 12 5 16 15 22 20 19 22 18 9 10 11 13 12 14 16
34 42 38 37 33 32 31 32 33 32 31 29 28 28 28 27 29 32 32 32 31 35 43 45 47 45 41 32 29 35 33 27 24 13 14 9 6 6 8 18 16 18 18 23 20 24 23 23 19 18 17 12 13 18
32 37 35 37 34 32 31 32 31 32 28 26 26 27 28 27 25 28 33 30 29 29 35 43 34 38 45 40 28 36 30 28 25 16 13 13 12 12 16 18 24 20 16 20 25 26 21 18 19 19 21 20 20 18
31 30 30 32 35 33 31 31 34 31 25 25 23 23 26 25 24 26 29 30 31 29 13 15 24 31 37 52 46 26 36 19 20 20 22 19 21 20 20 22 24 19 19 15 15 14 20 21 22 24 23 22 23 22
26 26 27 29 29 28 27 30 27 24 25 23 21 20 22 24 24 25 30 32 32 28 32 27 16 20 24 21 27 25 20 20 18 21 23 24 16 14 13 21 22 20 24 28 27 22 19 20 21 22 23 20 25 23
17 20 19 26 27 27 26 23 24 26 24 23 22 21 23 24 27 30 27 29 28 30 32 27 19 21 23 22 21 21 20 20 19 21 26 23 18 20 29 34 26 15 15 17 20 21 27 26 26 23 21 24 28 25
13 16 18 23 25 26 26 27 26 25 24 23 24 23 24 20 25 30 24 21 18 26 29 17 5 30 23 21 21 20 21 18 18 19 21 17 17 20 26 30 20 19 18 19 19 21 23 23 26 27 29 30 30 27
2 10 16 23 27 29 30 28 27 26 25 24 21 22 23 26 27 27 32 30 21 32 20 9 15 20 26 24 23 20 17 14 14 15 14 15 21 25 28 21 17 15 18 18 18 21 23 25 26 27 27 28 30 30
23 19 12 3 17 25 35 34 30 28 26 23 23 24 26 25 20 19 27 17 23 41 28 11 21 17 27 25 21 14 9 9 6 6 7 14 25 18 13 12 14 16 18 19 21 20 22 25 24 25 27 26 26 25
24 22 22 19 17 26 32 39 37 30 30 29 26 24 16 16 19 20 9 12 12 18 27 20 20 14 23 20 15 13 6 5 3 5 7 7 23 9 8 9 11 14 15 14 15 13 14 15 15 16 18 26 26 27
20 23 25 25 31 33 41 47 44 37 34 28 20 16 24 21 9 9 8 9 8 7 15 20 20 16 20 18 14 11 6 5 3 5 6 9 19 15 15 12 12 10 9 19 15 12 14 15 17 18 17 15 20 27
19 20 24 25 30 31 33 33 31 32 27 31 28 12 11 4 4 6 7 10 10 21 24 27 25 21 20 16 10 9 8 6 5 5 8 20 17 13 9 10 12 13 9 6 6 7 9 11 12 16 19 19 18 20
18 23 24 28 30 31 35 36 34 34 24 15 6 7 3 4 4 8 14 13 18 20 24 23 22 18 18 14 6 5 6 5 5 9 20 17 22 19 16 18 18 15 14 15 17 19 19 20 22 20 18 21 21 20
28 25 25 28 28 29 26 28 28 14 7 6 4 5 9 16 20 20 16 16 17 21 24 22 19 15 14 8 7 7 5 8 10 16 16 17 20 14 12 13 15 16 17 20 21 22 21 22 20 20 17 18 18 21
23 24 23 27 30 28 26 24 17 8 8 5 5 12 13 13 15 17 17 17 19 21 22 21 17 10 11 7 9 10 8 14 21 19 23 17 13 16 15 16 18 20 21 22 22 22 23 23 20 15 11 11 14 17
14 14 16 17 17 15 13 9 7 5 4 5 8 8 9 11 11 10 12 14 16 19 22 14 10 10 9 9 15 18 31 32 28 21 18 21 21 23 24 25 27 24 24 22 23 24 21 18 15 11 9 11 16 15
7 7 6 6 5 5 7 7 8 7 9 8 5 4 7 9 12 14 16 18 17 15 12 17 15 15 10 15 23 25 20 10 9 14 16 19 19 19 27 30 24 22 25 26 23 20 19 16 15 13 11 11 13 14
4 4 6 8 10 11 13 12 13 11 13 12 11 8 5 5 8 11 16 18 23 23 21 20 15 23 28 23 18 12 13 12 14 15 15 17 22 23 20 20 22 27 27 21 18 17 15 14 12 10 9 10 11 11
12 13 13 11 10 10 8 8 10 6 7 10 11 8 6 7 10 12 12 17 20 22 27 30 31 27 19 24 25 21 19 16 18 19 20 21 21 21 19 21 23 22 13 11 11 12 11 10 9 8 8 10 10 11
10 8 8 9 9 9 5 4 4 6 5 10 13 11 5 4 9 12 14 16 21 29 34 32 28 22 21 23 22 22 19 19 21 19 20 19 21 21 19 21 20 15 13 12 10 10 9 10 10 10 11 11 11 11
2 0 3 5 7 7 2 4 7 10 9 10 11 8 5 6 4 5 6 11 14 13 15 18 22 25 25 24 22 23 24 23 21 21 21 20 23 20 17 17 15 9 8 7 6 8 9 10 10 11 12 12 12 12
7 7 8 9 7 3 3 5 8 11 8 12 15 16 13 12 8 7 9 10 9 6 8 10 13 17 20 19 21 21 21 22 23 24 23 20 19 16 15 12 9 7 11 8 5 5 8 9 10 12 13 13 13 13
8 8 8 4 3 4 8 9 11 13 9 14 17 20 17 14 11 11 13 11 10 10 9 10 12 12 15 19 21 21 21 19 19 19 17 16 16 13 12 11 11 12 13 16 13 10 8 8 8 8 8 9 10 12
8 6 3 5 4 5 7 10 13 15 17 20 28 26 13 12 14 17 17 6 4 5 8 10 11 12 14 14 13 13 16 18 18 16 16 15 12 10 10 8 8 11 13 16 16 15 15 14 13 13 13 13 12 12
5 4 3 3 5 7 10 12 13 20 24 27 19 13 13 15 11 6 7 9 10 4 3 4 7 9 11 13 16 16 14 15 16 16 14 15 12 12 13 12 11 12 13 15 17 18 18 18 17 17 16 15 16 16
6 8 12 13 12 15 18 21 21 23 25 15 11 12 5 5 5 6 10 8 7 13 14 15 14 13 12 12 13 14 15 16 14 13 14 13 15 16 14 15 14 13 13 14 16 17 18 19 19 19 18 18 17 17
10 15 16 17 19 20 22 23 24 21 10 8 10 7 6 5 8 12 18 24 26 24 20 20 19 16 14 14 13 14 16 16 16 15 14 13 13 14 15 14 14 15 16 17 18 18 17 18 18 18 18 18 17 15
15 17 19 19 20 21 21 21 19 16 13 16 19 22 25 22 22 23 23 23 23 23 22 22 21 18 16 15 13 12 13 13 13 13 13 14 14 14 14 14 15 15 15 15 15 15 14 13 14 14 15 15 14 12
16 17 20 21 21 21 20 19 21 21 21 22 24 26 24 20 18 19 21 19 20 19 19 18 16 16 15 15 14 12 12 12 13 14 14 15 15 13 13 13 12 12 12 12 11 11 11 11 10 10 10 10 11 11
18 18 19 20 21 19 19 20 20 20 20 20 19 23 23 22 16 14 13 14 18 18 15 14 14 13 13 13 13 13 12 13 13 13 13 12 13 12 12 12 11 11 10 10 10 10 10 10 11 11 11 11 12 12
15 18 21 24 22 19 20 21 23 23 21 19 17 17 18 17 9 5 6 8 11 11 11 12 13 13 12 11 10 10 10 10 10 10 9 10 10 10 10 11 12 11 11 10 10 10 11 12 13 13 13 13 14 15
20 17 16 20 22 22 24 26 27 28 24 21 10 3 5 10 8 9 8 9 8 8 8 9 9 9 9 9 9 9 9 9 9 9 10 11 12 12 12 13 13 12 11 11 11 12 14 15 15 15 15 15 16 16
Wind_Direction
242 231 237 238 236 236 236 236 238 238 238 237 239 242 244 238 234 232 232 228 230 236 238 240 245 247 258 263 249 257 270 266 267 242 240 242 241 236 237 235 218 195 189 202 210 214 249 232 242 249 272 261 262 280
240 224 227 232 231 231 230 231 230 229 229 230 236 238 234 231 230 229 233 230 230 238 244 240 236 240 244 263 249 259 251 259 264 279 225 230 217 209 196 228 224 236 212 216 218 237 249 256 281 292 288 289 252 238
228 216 216 223 224 222 221 222 222 223 224 229 233 231 228 228 229 230 231 228 227 238 246 242 238 235 236 256 248 236 247 255 263 244 234 225 221 209 230 233 212 240 247 247 246 247 251 272 274 278 275 293 234 220
212 208 210 217 222 221 219 220 221 219 221 228 226 224 224 228 229 229 225 223 221 235 252 242 246 243 232 237 253 240 245 250 252 257 222 231 240 247 241 249 238 242 249 254 252 251 250 249 254 255 260 265 259 261
196 201 209 210 218 221 221 222 219 216 214 216 218 225 220 220 223 224 226 224 222 219 247 275 259 255 250 237 247 198 220 223 223 225 224 242 250 249 247 249 249 242 248 255 262 261 259 261 258 259 255 251 250 238
190 199 206 206 209 214 218 213 219 202 206 209 215 214 209 214 212 216 222 219 218 216 231 261 260 236 245 171 167 178 198 208 223 233 239 242 251 245 258 257 265 266 262 260 264 261 260 253 257 272 259 254 264 264
190 200 213 210 210 206 214 214 197 197 204 208 211 210 211 215 214 207 213 216 209 218 229 254 251 216 204 169 182 196 206 210 219 227 237 245 248 259 267 267 274 277 271 261 255 258 255 260 264 262 262 265 268 266
197 213 212 208 211 210 209 203 200 201 205 206 205 206 208 212 211 213 205 201 191 230 221 240 214 169 187 188 195 201 206 213 222 232 244 255 262 263 267 276 292 285 281 263 258 256 260 260 256 260 261 259 259 263
160 223 218 212 209 209 207 204 202 196 197 197 199 197 203 218 216 203 195 188 195 208 220 206 175 161 185 195 203 213 225 231 236 245 264 273 270 262 283 302 295 278 273 270 253 245 249 256 260 259 258 258 262 264
85 75 61 212 227 222 203 189 190 188 185 185 186 193 215 218 217 211 209 216 207 202 221 235 194 185 186 194 194 193 197 213 238 249 268 265 275 314 306 290 292 283 269 260 261 256 256 261 264 259 255 254 253 250
89 81 69 64 119 162 165 174 179 178 179 184 189 194 211 222 213 205 200 175 152 177 206 195 189 187 180 192 193 186 189 207 238 224 234 261 275 330 307 297 317 325 278 261 265 273 275 272 271 273 273 257 247 241
83 76 71 77 90 119 142 154 164 171 171 165 178 176 165 182 180 166 140 121 132 167 171 179 184 191 186 178 186 197 197 209 213 217 226 254 292 313 306 288 295 315 303 298 266 265 285 280 271 269 264 264 254 242
98 93 85 83 108 119 132 140 147 146 151 148 159 155 155 91 105 131 148 156 161 165 169 172 165 170 174 173 182 182 200 208 217 228 255 277 300 319 291 303 300 309 301 280 282 266 285 303 303 281 264 254 253 252
102 102 110 118 114 127 138 141 153 156 128 112 93 108 117 138 126 126 127 150 160 160 167 173 178 169 176 183 183 193 202 213 226 230 256 281 302 300 279 288 289 282 260 251 257 274 288 288 296 301 286 251 240 243
101 98 108 113 119 117 119 122 139 116 109 107 79 72 89 122 131 141 146 145 151 160 173 174 184 192 193 197 200 197 202 226 232 253 283 300 297 285 279 286 281 263 268 275 279 285 293 295 295 294 281 249 230 232
114 116 120 116 119 125 131 134 147 168 136 80 78 119 120 131 145 154 159 165 168 176 183 192 197 206 211 207 204 206 214 243 262 274 285 281 272 275 280 279 279 273 273 273 281 287 297 303 296 288 277 238 242 236
133 132 132 132 139 141 144 154 149 132 88 119 125 146 165 181 194 196 204 209 209 204 203 202 209 207 207 206 222 234 250 269 278 273 269 262 271 274 273 277 285 281 280 286 285 290 295 295 282 280 266 241 240 251
181 176 166 162 157 143 122 122 134 99 102 105 118 170 200 208 207 210 224 231 233 228 231 229 228 212 210 226 241 258 264 260 272 267 284 289 305 285 271 274 268 277 279 287 286 282 286 281 274 267 252 248 247 246
189 154 146 133 123 128 104 89 106 92 85 66 53 44 20 260 237 226 220 219 223 227 231 235 237 237 231 231 243 243 228 252 274 280 273 291 307 305 296 282 279 289 292 280 263 266 272 271 269 263 252 239 232 225
102 107 109 104 102 114 83 72 70 79 71 32 24 14 346 285 261 254 238 228 231 233 232 233 232 237 246 240 238 247 264 271 281 281 277 284 309 307 292 289 295 296 283 263 261 261 259 254 240 228 223 218 213 212
106 89 76 63 57 49 59 55 68 27 4 9 1 358 358 307 252 247 242 242 236 240 240 241 245 244 237 239 241 255 267 278 283 278 282 294 310 303 298 301 301 286 263 258 245 244 246 238 232 229 228 227 229 229
99 354 337 331 335 332 305 1 351 355 359 9 10 8 6 3 341 281 268 263 265 285 287 282 273 265 259 257 263 268 268 272 270 276 286 294 302 294 290 296 301 271 214 208 234 249 246 236 232 235 238 239 241 242
267 276 289 303 306 283 275 320 339 351 355 2 2 2 351 342 327 305 276 284 306 334 290 268 256 246 245 244 248 253 258 265 270 275 279 289 290 284 283 280 272 241 212 209 221 251 248 247 245 246 248 249 249 248
292 294 300 292 278 286 311 326 344 345 346 349 342 339 333 327 316 300 297 299 294 277 276 275 271 266 257 252 254 258 262 269 276 278 273 274 276 273 275 265 252 243 239 234 241 250 257 258 263 260 257 257 256 251
307 307 281 282 290 313 321 335 341 334 334 327 323 326 309 306 300 296 290 275 327 287 270 270 274 276 269 261 258 267 268 266 267 261 268 268 261 269 271 263 264 254 249 244 245 251 253 256 261 265 266 265 266 267
295 275 255 275 295 306 311 309 311 314 314 317 314 312 295 293 284 257 262 268 288 287 344 349 329 311 303 280 272 273 269 265 264 268 275 256 256 261 256 250 259 268 262 254 252 254 257 257 259 263 266 264 263 266
261 262 273 286 290 294 296 304 306 307 311 310 306 319 304 265 262 262 279 267 314 332 322 311 302 298 294 285 275 271 273 275 275 270 264 261 264 251 246 259 258 266 276 273 268 265 263 262 263 265 267 268 268 265
273 285 295 303 303 305 303 306 306 307 302 292 284 289 255 245 257 269 283 292 296 295 294 290 289 287 285 280 277 273 267 266 267 268 267 268 278 276 267 262 266 274 274 271 270 270 265 261 259 258 258 259 259 257
304 310 309 312 311 310 309 311 306 304 300 290 286 283 282 292 294 295 291 286 287 289 287 283 283 281 275 275 277 277 270 263 263 265 268 272 274 277 280 279 279 277 273 269 266 265 263 259 254 250 246 247 247 249
323 321 317 318 318 320 323 314 306 303 301 300 298 296 296 303 300 289 289 290 287 287 286 289 285 275 270 268 268 268 264 258 256 261 266 271 277 280 281 281 279 277 274 270 266 261 255 250 245 239 236 239 248 252
319 318 317 316 317 322 312 308 307 304 307 306 304 300 306 304 312 318 303 284 281 282 282 279 278 276 272 268 264 262 258 255 256 262 267 269 275 280 282 284 284 281 277 269 260 254 250 245 240 240 247 246 248 257
327 328 322 319 319 323 318 313 310 310 311 306 299 294 296 309 342 10 340 299 293 296 286 274 268 267 266 264 264 263 261 262 261 262 264 266 272 281 287 287 284 280 274 263 254 250 248 246 247 249 249 252 258 263
336 330 322 320 330 330 325 324 321 320 325 337 339 339 26 355 5 358 7 348 331 312 291 278 272 264 258 257 258 260 262 263 261 261 263 267 272 277 280 280 280 277 269 261 256 255 254 254 253 254 257 261 265 267